[[{"header":{"parameterUnit":"m.s-1","parameterCategory":1,"la1":30.2991,"la2":30.254,"lo1":-89.0895,"lo2":-89.0444,"dy":0.0017,"dx":0.0017,"nx":28,"ny":28,"refTime":"2025-01-08T09:00:00:Z","depth":0,"parameterNumber":2,"parameterNumberName":"U-component_of_WINDS"},"data":[0,0,0,0,0,0,0,0,0,0,0,0,0,0,0,0,0,0,0,0,0,0,0,0,0,0,0,0,0,0,0,0,0,0,0,0,0,0,0,0,0,0,0,0,0,0,0,0,0,0,0,0,0,0,0,0,0,0,-0.334,-0.3341,0,-0.3378,-0.3378,-0.3379,-0.3338,-0.3336,-0.3334,-0.3333,-0.3375,-0.3378,-0.3381,0,0,0,0,0,0,0,0,0,0,0,0,0,-0.3235,-0.3237,-0.334,-0.3341,-0.3341,-0.3378,-0.3378,-0.3379,-0.3338,-0.3336,-0.3334,-0.3332,-0.3375,-0.3378,-0.3381,0,0,0,0,0,0,0,0,0,0,0,0,0,-0.3278,-0.3238,-0.334,-0.3325,-0.3324,-0.3378,-0.3378,-0.3379,-0.3338,-0.3336,-0.3333,-0.3331,-0.3374,-0.3377,-0.3381,-0.3453,0,0,-0.3393,-0.3395,0,0,0,0,0,0,0,0,-0.3275,-0.3282,-0.3327,-0.3326,-0.3325,-0.335,-0.3357,-0.3404,-0.3339,-0.3333,-0.3333,-0.333,-0.3369,-0.3373,-0.3386,-0.3455,-0.3457,-0.3394,-0.3396,-0.3398,-0.3399,0,0,0,0,0,0,0,-0.3273,-0.328,-0.3355,-0.3327,-0.3326,-0.3317,-0.3321,-0.3366,-0.3364,-0.3333,-0.333,-0.3335,-0.3368,-0.3382,-0.3387,-0.3457,-0.3393,-0.3397,-0.3399,-0.3401,-0.3587,-0.3589,0,0,0,0,0,0,-0.3271,-0.3278,-0.3354,-0.3356,-0.3294,-0.3321,-0.3325,-0.3345,-0.3363,-0.3364,-0.3337,-0.3333,-0.3377,-0.3382,-0.3388,-0.3473,-0.3398,-0.3401,-0.3403,-0.3584,-0.3587,-0.359,0,0,0,0,0,0,-0.3269,-0.3278,-0.3352,-0.3316,-0.3325,-0.3325,-0.3348,-0.3347,-0.336,-0.3366,-0.3366,-0.3351,-0.3375,-0.3382,-0.3437,-0.3474,-0.3403,-0.3407,-0.3581,-0.3585,-0.3589,-0.3645,0,0,0,0,0,0,-0.3266,-0.3278,-0.3304,-0.3317,-0.3327,-0.34,-0.335,-0.3349,-0.3367,-0.3362,-0.338,-0.338,-0.3374,-0.3431,-0.3441,-0.3478,-0.341,-0.3578,-0.3583,-0.3587,-0.364,-0.365,-0.3659,0,0,0,0,0,-0.3262,-0.332,-0.3306,-0.3315,-0.336,-0.3402,-0.3408,-0.3398,-0.337,-0.3397,-0.3401,-0.338,-0.3468,-0.3437,-0.3447,-0.3487,-0.3575,-0.3581,-0.3587,-0.3635,-0.3648,-0.3659,0,0,0,0,0,0,-0.3313,-0.3321,-0.3306,-0.3369,-0.3385,-0.3395,-0.343,-0.3412,-0.3438,-0.3432,-0.342,-0.3424,-0.3482,-0.3489,-0.3455,-0.3557,-0.3517,-0.3525,-0.355,-0.3563,-0.3572,-0.357,-0.3413,0,0,0,0,0,-0.3331,-0.3364,-0.3369,-0.3424,-0.3433,-0.343,-0.3448,-0.3438,-0.3455,-0.3463,-0.347,-0.3488,-0.352,-0.3541,-0.3571,-0.3639,-0.3643,-0.3672,-0.3681,-0.3689,-0.3697,-0.3734,-0.3747,-0.3609,-0.3609,-0.3609,0,0,-0.337,-0.3379,-0.34,-0.3435,-0.3446,-0.3481,-0.3436,-0.3475,-0.3501,-0.3469,-0.3521,-0.3526,-0.3546,-0.3607,-0.3635,-0.3616,-0.3736,-0.3697,-0.3703,-0.3707,-0.3742,-0.3755,-0.3766,-0.3613,-0.3612,-0.3612,0,0,-0.3459,-0.3468,-0.3515,-0.3527,-0.3544,-0.3541,-0.3552,-0.3564,-0.3567,-0.3618,-0.3594,-0.3625,-0.368,-0.3694,-0.3709,-0.3801,-0.3783,-0.3811,-0.3863,-0.3899,-0.391,-0.3919,-0.3953,-0.3965,-0.3818,-0.3818,-0.3818,0,-0.3506,-0.3556,-0.3542,-0.3582,-0.3598,-0.3568,-0.3616,-0.3628,-0.3655,-0.3667,-0.3644,-0.3711,-0.3722,-0.3787,-0.3809,-0.3822,-0.3835,-0.381,-0.3909,-0.3919,-0.3927,-0.396,-0.3972,-0.3822,-0.3821,-0.3821,-0.3821,0,-0.3613,-0.3649,-0.3684,-0.3709,-0.3729,-0.3773,-0.3765,-0.3787,-0.3775,-0.3775,-0.3828,-0.3839,-0.387,-0.3884,-0.3874,-0.3948,-0.3935,-0.3911,-0.3871,-0.3944,-0.3974,-0.3986,-0.3826,-0.3825,-0.3824,-0.3823,0,0,-0.3738,-0.3752,-0.3766,-0.3776,-0.3792,-0.382,-0.3862,-0.389,-0.391,-0.3928,-0.3965,-0.401,-0.3987,-0.4004,-0.3994,-0.4026,-0.4099,-0.3998,-0.3998,-0.4017,-0.4182,-0.4201,-0.4216,-0.4085,-0.4088,-0.409,-0.418,0,-0.3828,-0.3901,-0.3888,-0.3959,-0.3991,-0.3962,-0.3999,-0.4013,-0.4013,-0.4041,-0.4042,-0.4075,-0.4041,-0.4051,-0.4081,-0.4084,-0.4132,-0.4077,-0.412,-0.4122,-0.4119,-0.4231,-0.4253,-0.4338,-0.4192,-0.4194,-0.4195,0,-0.3944,-0.3965,-0.4039,-0.4048,-0.4061,-0.4095,-0.412,-0.4147,-0.4162,-0.4159,-0.4177,-0.4161,-0.4204,-0.4161,-0.422,-0.4183,-0.4199,-0.4203,-0.4206,-0.4212,-0.4165,-0.4242,-0.4365,-0.4378,-0.4214,-0.4212,-0.4211,0,-0.4029,-0.4076,-0.4126,-0.4136,-0.4148,-0.4172,-0.4178,-0.419,-0.4208,-0.423,-0.4242,-0.4268,-0.4284,-0.4305,-0.4297,-0.4267,-0.4358,-0.4315,-0.4359,-0.4359,-0.4382,-0.4381,-0.4511,-0.4389,-0.4389,-0.4389,-0.4388,0,-0.4132,-0.4179,-0.4165,-0.4196,-0.4247,-0.4231,-0.4283,-0.4285,-0.4296,-0.4328,-0.4304,-0.4334,-0.432,-0.435,-0.4344,-0.4394,-0.4401,-0.4401,-0.4399,-0.4405,-0.4405,-0.4417,-0.4412,-0.4392,-0.4391,-0.4391,-0.439,0,-0.4238,-0.423,-0.4283,-0.4289,-0.4291,-0.4329,-0.4334,-0.4364,-0.4361,-0.4401,-0.441,-0.4406,-0.4439,-0.4432,-0.4469,-0.4465,-0.4528,-0.4518,-0.4523,-0.4522,-0.4567,-0.4563,-0.4711,-0.473,-0.4594,-0.4596,-0.4597,0,-0.4306,-0.434,-0.4349,-0.4368,-0.4376,-0.4406,-0.4424,-0.4409,-0.4428,-0.4447,-0.4474,-0.4505,-0.4529,-0.4584,-0.4585,-0.4613,-0.4604,-0.4654,-0.4609,-0.4613,-0.4607,-0.4606,-0.4609,-0.4664,-0.4666,-0.4667,-0.4668,0,-0.4427,-0.442,-0.4446,-0.447,-0.4491,-0.451,-0.4526,-0.4543,-0.4529,-0.4552,-0.4585,-0.4603,-0.464,-0.4671,-0.4697,-0.4704,-0.4685,-0.4682,-0.4694,-0.4701,-0.4703,-0.4703,-0.455,-0.4679,-0.4678,-0.4677,-0.4677,-0.4676,-0.4516,-0.4546,-0.4557,-0.4586,-0.4596,-0.4611,-0.4639,-0.4638,-0.4665,-0.4693,-0.4682,-0.472,-0.4733,-0.4765,-0.4775,-0.4805,-0.4786,-0.4803,-0.4808,-0.4813,-0.4819,-0.4696,-0.4809,-0.4809,-0.4809,-0.4808,-0.4808,0,-0.4638,-0.4642,-0.4669,-0.4692,-0.4714,-0.4691,-0.4708,-0.4729,-0.4762,-0.4775,-0.4798,-0.4836,-0.4865,-0.4868,-0.4896,-0.4919,-0.4911,-0.4927,-0.4926,-0.4928,-0.4834,-0.4821,-0.4933,-0.4933,-0.4933,-0.4933,-0.4933,-0.4933,-0.4704,-0.4753,-0.4747,-0.4801,-0.4805,-0.4841,-0.4852,-0.4867,-0.4877,-0.4919,-0.4943,-0.4944,-0.4953,-0.498,-0.5007,-0.5006,-0.5019,-0.5039,-0.5036,-0.4947,-0.4935,-0.4923,-0.4912,-0.5041,-0.5041,-0.5128,-0.5129,-0.5129]},{"header":{"parameterUnit":"m.s-1","parameterCategory":1,"la1":30.2991,"la2":30.254,"lo1":-89.0895,"lo2":-89.0444,"dy":0.0017,"dx":0.0017,"nx":28,"ny":28,"refTime":"2025-01-08T09:00:00:Z","depth":0,"parameterNumber":3,"parameterNumberName":"V-component_of_WINDS"},"data":[0,0,0,0,0,0,0,0,0,0,0,0,0,0,0,0,0,0,0,0,0,0,0,0,0,0,0,0,0,0,0,0,0,0,0,0,0,0,0,0,0,0,0,0,0,0,0,0,0,0,0,0,0,0,0,0,0,0,-6.5639,-6.564,0,-6.5729,-6.573,-6.5731,-6.562,-6.5616,-6.5612,-6.5608,-6.5696,-6.5702,-6.5708,0,0,0,0,0,0,0,0,0,0,0,0,0,-6.5367,-6.5372,-6.5639,-6.564,-6.5641,-6.5729,-6.573,-6.5731,-6.5621,-6.5616,-6.5611,-6.5606,-6.5694,-6.5702,-6.5709,0,0,0,0,0,0,0,0,0,0,0,0,0,-6.5474,-6.5374,-6.5639,-6.5597,-6.5594,-6.5729,-6.573,-6.5732,-6.5622,-6.5616,-6.561,-6.5604,-6.5692,-6.5701,-6.571,-6.5889,0,0,-6.5738,-6.5742,0,0,0,0,0,0,0,0,-6.5468,-6.5484,-6.5602,-6.56,-6.5597,-6.5657,-6.5666,-6.5785,-6.5623,-6.5611,-6.5608,-6.5601,-6.5688,-6.5697,-6.5727,-6.5894,-6.5897,-6.5739,-6.5745,-6.5749,-6.5751,0,0,0,0,0,0,0,-6.5461,-6.5479,-6.5674,-6.5604,-6.5601,-6.5572,-6.558,-6.5688,-6.5683,-6.5612,-6.5604,-6.5616,-6.5685,-6.5719,-6.5729,-6.5899,-6.5739,-6.5747,-6.5753,-6.5756,-6.6215,-6.6221,0,0,0,0,0,0,-6.5459,-6.5474,-6.5672,-6.5677,-6.5516,-6.5582,-6.5591,-6.5644,-6.5681,-6.5681,-6.5621,-6.5611,-6.5706,-6.5718,-6.5731,-6.5943,-6.5749,-6.5757,-6.5762,-6.6208,-6.6216,-6.6224,0,0,0,0,0,0,-6.5453,-6.5477,-6.5668,-6.5574,-6.5596,-6.5593,-6.5653,-6.5649,-6.5682,-6.5689,-6.5686,-6.5657,-6.5702,-6.5718,-6.5851,-6.5945,-6.5761,-6.577,-6.6201,-6.6211,-6.622,-6.6369,0,0,0,0,0,0,-6.5446,-6.5476,-6.5545,-6.5576,-6.5601,-6.5788,-6.5659,-6.5655,-6.5699,-6.5686,-6.5721,-6.5721,-6.5698,-6.5838,-6.586,-6.5954,-6.5777,-6.6192,-6.6205,-6.6217,-6.6355,-6.6382,-6.6406,0,0,0,0,0,-6.5437,-6.5583,-6.555,-6.5574,-6.5688,-6.5794,-6.5808,-6.578,-6.5707,-6.5776,-6.578,-6.572,-6.5931,-6.5852,-6.5876,-6.5975,-6.6186,-6.6201,-6.6216,-6.6344,-6.6377,-6.6405,0,0,0,0,0,0,-6.5562,-6.5586,-6.5549,-6.571,-6.5751,-6.5775,-6.5861,-6.5816,-6.5877,-6.5862,-6.5822,-6.5831,-6.5973,-6.5987,-6.5899,-6.6149,-6.6046,-6.6067,-6.6135,-6.6167,-6.6192,-6.6185,-6.5785,0,0,0,0,0,-6.5609,-6.5694,-6.571,-6.585,-6.5873,-6.5864,-6.5909,-6.5883,-6.5923,-6.5939,-6.5953,-6.5993,-6.6068,-6.6118,-6.6187,-6.6357,-6.6362,-6.6436,-6.6461,-6.6482,-6.65,-6.6589,-6.6622,-6.6273,-6.6273,-6.6272,0,0,-6.5706,-6.5729,-6.5785,-6.5876,-6.5905,-6.5993,-6.5879,-6.5977,-6.6041,-6.5954,-6.608,-6.6092,-6.6133,-6.6285,-6.6352,-6.6301,-6.6597,-6.6501,-6.6517,-6.6524,-6.6608,-6.6641,-6.6671,-6.6283,-6.6281,-6.6279,0,0,-6.5927,-6.5954,-6.6074,-6.6105,-6.615,-6.6143,-6.6172,-6.6203,-6.6207,-6.6334,-6.627,-6.6345,-6.6475,-6.6507,-6.6541,-6.6774,-6.6721,-6.6798,-6.6929,-6.7017,-6.7044,-6.7068,-6.7151,-6.7181,-6.6816,-6.6816,-6.6816,0,-6.6041,-6.6173,-6.6141,-6.6243,-6.6285,-6.6211,-6.6331,-6.6362,-6.6427,-6.6457,-6.6398,-6.656,-6.6583,-6.6741,-6.6798,-6.6827,-6.6858,-6.6793,-6.7043,-6.7067,-6.7089,-6.7167,-6.7198,-6.6825,-6.6824,-6.6823,-6.6822,0,-6.631,-6.6402,-6.6493,-6.6559,-6.6611,-6.6722,-6.6705,-6.6761,-6.6731,-6.6729,-6.6858,-6.6883,-6.6956,-6.6992,-6.6963,-6.7145,-6.7112,-6.7049,-6.6944,-6.7132,-6.7204,-6.7234,-6.6838,-6.6835,-6.6832,-6.683,0,0,-6.6613,-6.6661,-6.6694,-6.6723,-6.6767,-6.6837,-6.6943,-6.7016,-6.7064,-6.7111,-6.7199,-6.7311,-6.7253,-6.7291,-6.7265,-6.7342,-6.7524,-6.7269,-6.727,-6.7315,-6.7725,-6.7772,-6.7807,-6.749,-6.7495,-6.75,-6.7722,0,-6.6834,-6.7021,-6.6995,-6.7174,-6.7258,-6.7189,-6.7281,-6.7318,-6.7319,-6.7389,-6.739,-6.747,-6.7388,-6.741,-6.7483,-6.7487,-6.7606,-6.747,-6.7569,-6.7573,-6.7561,-6.7845,-6.7895,-6.8104,-6.775,-6.7755,-6.7758,0,-6.7118,-6.7176,-6.7364,-6.7395,-6.7428,-6.7513,-6.7577,-6.7645,-6.7684,-6.7679,-6.7722,-6.7682,-6.7787,-6.7682,-6.7825,-6.7733,-6.7772,-6.778,-6.7787,-6.7795,-6.7677,-6.786,-6.817,-6.8201,-6.7803,-6.7799,-6.7796,0,-6.7319,-6.7445,-6.7573,-6.76,-6.7639,-6.7699,-6.7718,-6.7751,-6.7796,-6.7852,-6.788,-6.7947,-6.7983,-6.8035,-6.8013,-6.7938,-6.8161,-6.8053,-6.8159,-6.816,-6.8208,-6.8205,-6.8528,-6.8235,-6.8234,-6.8234,-6.8233,0,-6.7568,-6.7686,-6.7664,-6.7743,-6.7872,-6.784,-6.7968,-6.7978,-6.8008,-6.8087,-6.8031,-6.8105,-6.8072,-6.8144,-6.8128,-6.8249,-6.8266,-6.8264,-6.8258,-6.8269,-6.8269,-6.8293,-6.8278,-6.8242,-6.824,-6.8239,-6.8237,0,-6.7815,-6.7806,-6.7941,-6.7967,-6.7976,-6.807,-6.8091,-6.8164,-6.8161,-6.8261,-6.8283,-6.8278,-6.8359,-6.8343,-6.8433,-6.8422,-6.8573,-6.8549,-6.8561,-6.8555,-6.8661,-6.8651,-6.901,-6.9054,-6.8733,-6.8736,-6.8739,0,-6.7975,-6.8064,-6.81,-6.8149,-6.8172,-6.8252,-6.8298,-6.827,-6.832,-6.8371,-6.8438,-6.8515,-6.8574,-6.8708,-6.8711,-6.8779,-6.8756,-6.8877,-6.8766,-6.8774,-6.8757,-6.8752,-6.876,-6.8899,-6.8903,-6.8906,-6.8908,0,-6.8259,-6.825,-6.8319,-6.8387,-6.8443,-6.8495,-6.8541,-6.8584,-6.8559,-6.8618,-6.8702,-6.8748,-6.884,-6.8917,-6.898,-6.8996,-6.8949,-6.8943,-6.8971,-6.8983,-6.8985,-6.8985,-6.862,-6.8935,-6.8932,-6.893,-6.8929,-6.8928,-6.8466,-6.8542,-6.8579,-6.8658,-6.8689,-6.8734,-6.8804,-6.881,-6.8879,-6.8953,-6.8931,-6.9026,-6.9061,-6.9141,-6.9166,-6.9238,-6.9193,-6.9234,-6.9244,-6.9254,-6.9267,-6.8975,-6.925,-6.9249,-6.9248,-6.9248,-6.9247,0,-6.8747,-6.8767,-6.884,-6.8907,-6.8969,-6.8919,-6.8967,-6.9021,-6.9106,-6.9144,-6.9204,-6.93,-6.9373,-6.9383,-6.9452,-6.9508,-6.9488,-6.9527,-6.9523,-6.9527,-6.9304,-6.9273,-6.9543,-6.9543,-6.9543,-6.9543,-6.9543,-6.9543,-6.89,-6.9025,-6.902,-6.916,-6.9179,-6.9272,-6.9304,-6.9344,-6.9374,-6.9483,-6.9545,-6.9551,-6.9577,-6.9648,-6.9713,-6.9713,-6.9741,-6.9789,-6.9781,-6.9572,-6.9543,-6.9515,-6.9485,-6.9796,-6.9796,-6.9998,-7.0,-7.0002]}]]